User: anonymous   Login
Location: Unspecified
(0.0000°N, 0.0000°E)
Time: 19:26:20
(UTC+00:00)
Language:

ONEWEB-0531 - Orbit

View from above orbital plane
View from above orbital plane
View from above satellite
View from above satellite

Ground track
Ground track

The orbit is defined by the following mean orbital elements,

1 54146U          26145.65751617 +.00000000 +00000-0 +36267-7 0 00000
2 54146  87.9174 278.9272 0002323 120.5815 239.5548 13.20772231    01
Epoch (UTC): 25 May 2026 15:46:49
Eccentricity: 0.0002323
inclination: 87.9174°
perigee height: 1180 km
apogee height: 1184 km
right ascension of ascending node: 278.9272°
argument of perigee: 120.5815°
revolutions per day: 13.20772231
mean anomaly at epoch: 239.5548°

The dashed part of the orbit path shows where the satellite is in the earth's shadow,  

DLR